Location: Chandolas
(44.4033°N, 4.2533°E)
Time: 04:05:08
(UTC+00:00)

Cosmos 2298 Rocket - Pass Details

Date: 15 November 2019
Orbit: 777 x 783 km, 74.0° (Epoch: 11 December)

Event Time Altitude Azimuth Distance (km) Brightness Sun altitude
Rises 05:43:33 0° 205° (SSW) 3,251 7.2 -10.0°
Reaches altitude 10° 05:45:57 10° 207° (SSW) 2,326 6.4 -9.6°
Maximum altitude 05:51:13 72° 292° (WNW) 823 4.0 -8.7°
Drops below altitude 10° 05:56:32 10° 17° (NNE) 2,338 6.5 -7.8°
Sets 05:58:56 0° 20° (NNE) 3,269 7.3 -7.4°
